Location: Eschertshofen
(49.3064°N, 11.5756°E)
Time: 12:02:58
(UTC+00:00)

Lacrosse 5 rocket - Pass Details

Date: 18 September 2020
Orbit: 460 x 635 km, 57.0° (Epoch: 23 October)

Event Time Altitude Azimuth Distance (km) Brightness Sun altitude
Rises 18:07:19 0° 254° (WSW) 2,725 6.1 -8.5°
Reaches altitude 10° 18:09:33 10° 260° (W) 1,862 5.3 -8.9°
Maximum altitude 18:13:40 49° 336° (NNW) 768 2.3 -9.5°
Drops below altitude 10° 18:18:02 10° 52° (NE) 1,967 3.8 -10.2°
Enters shadow 18:19:33 - 56° (ENE) 2,551 4.3 -10.5°
